Location: Bishop�s Knoyle
(51.0728°N, 2.1714°W)
Time: 10:07:28
(UTC+00:00)

N. Korean satellite - Pass Details

Date: 01 October 2021
Orbit: 450 x 495 km, 97.3° (Epoch: 15 October)

Event Time Altitude Azimuth Distance (km) Brightness Sun altitude
Rises 05:22:24 0° 15° (NNE) 2,545 10.5 -8.2°
Reaches altitude 10° 05:24:29 10° 19° (NNE) 1,668 9.6 -7.9°
Maximum altitude 05:28:03 61° 101° (ESE) 556 7.2 -7.3°
Drops below altitude 10° 05:31:37 10° 183° (S) 1,677 9.2 -6.8°
Sets 05:33:43 0° 186° (S) 2,559 10.1 -6.4°
